Alton, IL

5:37 PM CST on December 15, 2017 (GMT -0600)
Saint Louis Regional

Weather History for KALN - November, 2013

Change the Weather History Date:

Friday, November 22, 2013

  Actual Average Record
Temperature  
Mean Temperature 40 °F -  
Max Temperature 49 °F 50 °F 73 °F (2010)
Min Temperature 32 °F 34 °F 17 °F (2000)
Degree Days  
Heating Degree Days 24    
Moisture  
Dew Point 38 °F    
Average Humidity 92    
Maximum Humidity 100    
Minimum Humidity 81    
Precipitation  
Precipitation 0.01 in - - ()
Sea Level Pressure  
Sea Level Pressure 30.39 in    
Wind  
Wind Speed 8 mph (NW)    
Max Wind Speed 16 mph    
Max Gust Speed 22 mph    
Visibility 8 miles    
Events Rain    
Averages and records for this station are not official NWS values.
T = Trace of Precipitation, MM = Missing Value Source: NWS Daily Summary

Daily Weather History Graph

Daily Weather History Graph

Search for Another Location

Airport or City:

Trip Planner

Search our weather history database for the weather conditions in past years. The results will help you decide how hot, cold, wet, or windy it might be!

Date:

Astronomy

Nov. 22, 2013 Rise Set
Actual Time 6:50 AM CST 4:41 PM CST
Civil Twilight 6:21 AM CST 5:10 PM CST
Nautical Twilight 5:49 AM CST 5:43 PM CST
Astronomical Twilight 5:17 AM CST 6:15 PM CST
Moon 9:13 PM CST (11/22) 10:34 AM CST (11/22)
Length of Visible Light 10h 48m
Length of Day
9h 50m
Waning Gibbous, 78% of the Moon is Illuminated
Nov 22
Waning Gibbous
Nov 25
Last Quarter
Dec 2
New
Dec 9
First Quarter
Dec 17
Full

Hourly Weather History & Observations

Time (CST) Temp. Windchill Dew Point Humidity Pressure Visibility Wind Dir Wind Speed Gust Speed Precip Events Conditions
12:15 AM 49.3 °F - 49.1 °F 99% 30.20 in 2.5 mi NW 3.5 mph - N/A Rain Rain
12:35 AM 49.1 °F - 49.1 °F 100% 30.21 in 2.5 mi NW 6.9 mph - 0.01 in Rain Rain
12:55 AM 49.1 °F - 48.7 °F 99% 30.22 in 3.0 mi NNW 8.1 mph - 0.01 in   Mist
1:15 AM 48.4 °F - 48.2 °F 99% 30.22 in 4.0 mi NNW 8.1 mph - N/A   Mist
1:35 AM 48.2 °F - 47.8 °F 99% 30.23 in 3.0 mi NNW 5.8 mph - N/A   Mist
1:55 AM 47.3 °F - 46.9 °F 99% 30.24 in 3.0 mi NNW 8.1 mph - N/A   Mist
2:15 AM 46.4 °F 41.9 °F 45.9 °F 98% 30.25 in 2.0 mi NW 9.2 mph - N/A   Overcast
2:35 AM 45.7 °F 43.4 °F 45.5 °F 99% 30.25 in 3.0 mi NW 4.6 mph - N/A   Overcast
2:55 AM 45.3 °F 39.7 °F 45.0 °F 99% 30.25 in 4.0 mi NW 11.5 mph - N/A   Overcast
3:15 AM 44.4 °F 39.5 °F 43.7 °F 97% 30.26 in 5.0 mi NW 9.2 mph - N/A   Overcast
3:35 AM 43.9 °F 37.9 °F 43.2 °F 97% 30.27 in 4.0 mi NW 11.5 mph 18.4 mph N/A   Overcast
3:55 AM 43.0 °F 37.7 °F 42.4 °F 98% 30.28 in 5.0 mi NW 9.2 mph 17.3 mph N/A   Mist
4:15 AM 43.0 °F 38.8 °F 42.3 °F 97% 30.29 in 7.0 mi NNW 6.9 mph - N/A   Unknown
4:35 AM 42.4 °F 35.7 °F 41.5 °F 97% 30.30 in 5.0 mi NNW 12.7 mph 21.9 mph N/A   Mist
4:55 AM 42.3 °F 35.9 °F 41.2 °F 96% 30.31 in 4.0 mi NNW 11.5 mph - N/A   Mist
5:15 AM 41.0 °F 34.3 °F 39.7 °F 95% 30.32 in 7.0 mi NW 11.5 mph 18.4 mph N/A   Overcast
5:35 AM 40.1 °F 33.2 °F 39.2 °F 97% 30.34 in 7.0 mi NW 11.5 mph - N/A   Overcast
5:55 AM 39.7 °F 32.7 °F 38.7 °F 96% 30.34 in 7.0 mi NW 11.5 mph 17.3 mph N/A   Overcast
6:50 AM 39.2 °F 30.8 °F 37.4 °F 93% 30.37 in 10.0 mi NNW 15.0 mph - N/A   Overcast
7:55 AM 37.4 °F 28.9 °F 37.4 °F 100% 30.40 in 10.0 mi NNW 13.8 mph - N/A   Overcast
8:50 AM 37.4 °F 28.9 °F 35.6 °F 93% 30.42 in 10.0 mi NNW 13.8 mph - N/A   Overcast
9:50 AM 37.4 °F 28.2 °F 35.6 °F 93% 30.44 in 10.0 mi NNW 16.1 mph - N/A   Overcast
10:50 AM 37.4 °F 28.5 °F 35.6 °F 93% 30.46 in 8.0 mi NNW 15.0 mph - N/A   Overcast
11:47 AM 37.4 °F 28.2 °F 35.6 °F 93% 30.45 in 8.0 mi NW 16.1 mph - N/A   Overcast
12:45 PM 39.2 °F 32.0 °F 35.6 °F 87% 30.44 in 10.0 mi NNW 11.5 mph 17.3 mph N/A   Overcast
1:50 PM 39.2 °F 32.0 °F 35.6 °F 87% 30.44 in 10.0 mi NNW 11.5 mph - N/A   Overcast
3:45 PM 37.4 °F 30.8 °F 32.0 °F 81% 30.49 in 10.0 mi NNW 9.2 mph 20.7 mph N/A   Overcast
4:50 PM 35.6 °F 28.6 °F 32.0 °F 87% 30.51 in 10.0 mi NNW 9.2 mph 16.1 mph N/A   Overcast
5:50 PM 35.6 °F 29.9 °F 32.0 °F 87% 30.53 in 10.0 mi NW 6.9 mph - N/A   Overcast
6:50 PM 35.6 °F 30.7 °F 32.0 °F 87% 30.52 in 10.0 mi NW 5.8 mph - N/A   Overcast
7:50 PM 35.6 °F 29.9 °F 30.2 °F 81% 30.52 in 10.0 mi NNW 6.9 mph - N/A   Overcast
8:55 PM 35.6 °F 31.7 °F 30.2 °F 81% 30.51 in 10.0 mi NNW 4.6 mph - N/A   Overcast
9:15 PM 35.1 °F 31.0 °F 31.1 °F 85% 30.53 in 10.0 mi NW 4.6 mph - N/A   Unknown
9:35 PM 34.9 °F 29.9 °F 31.6 °F 88% 30.53 in 10.0 mi NW 5.8 mph - N/A   Unknown
9:55 PM 34.9 °F 29.9 °F 31.6 °F 88% 30.52 in 10.0 mi NW 5.8 mph - N/A   Unknown
9:57 PM 35.6 °F 31.7 °F 30.2 °F 81% 30.51 in 10.0 mi NNW 4.6 mph - N/A   Overcast
10:15 PM 34.9 °F 29.9 °F 31.6 °F 88% 30.53 in 10.0 mi NW 5.8 mph - N/A   Unknown
10:35 PM 34.5 °F 28.6 °F 31.1 °F 87% 30.53 in 10.0 mi NNW 6.9 mph - N/A   Unknown
10:55 PM 33.6 °F 28.4 °F 30.6 °F 89% 30.53 in 10.0 mi NW 5.8 mph - N/A   Unknown
11:15 PM 33.1 °F 27.7 °F 30.6 °F 90% 30.53 in 10.0 mi NNW 5.8 mph - N/A   Unknown
11:35 PM 32.9 °F 26.7 °F 30.2 °F 90% 30.53 in 10.0 mi NW 6.9 mph - N/A   Unknown
11:55 PM 32.4 °F 26.9 °F 30.0 °F 91% 30.52 in 10.0 mi NNW 5.8 mph - N/A   Unknown